LOT329 EPWA-LIPE

Flight info

Callsign LOT329
Flight time 1h 33m
Altitude 34000
Route EVINA N744 NAVUR DCT TUSIN DCT MIKOV DCT DETSA/N0448F350 DCT ADOSA/N0372F190 M738 BENUS
Aircraft B38M/M-SDE1FGHILORVWXY/HB1

Departure

Time 2026-04-30 11:12
Airport Warsaw Chopin Airport (EPWA)

Arrival

Time 2026-04-30 12:45
Airport Bologna Guglielmo Marconi Airport (LIPE)
Time Latitude Longitude Altitude Speed Heading
2026-04-30 10:35 52.16957 20.97188 337 ft 0 kts 68°
2026-04-30 10:47 52.16957 20.97187 368 ft 0 kts 68°
2026-04-30 10:55 52.16956 20.97187 341 ft 0 kts 68°
2026-04-30 10:55 52.16957 20.97187 341 ft 0 kts 68°
2026-04-30 10:56 52.16956 20.97187 341 ft 0 kts 68°
2026-04-30 11:02 52.16950 20.97163 336 ft 4 kts 68°
2026-04-30 11:02 52.16940 20.97122 337 ft 4 kts 68°
2026-04-30 11:02 52.16932 20.97088 336 ft 4 kts 72°
2026-04-30 11:03 52.16932 20.97050 340 ft 4 kts 120°
2026-04-30 11:03 52.16950 20.97022 340 ft 4 kts 150°
2026-04-30 11:03 52.16956 20.97017 340 ft 0 kts 152°
2026-04-30 11:06 52.16956 20.97016 341 ft 0 kts 152°
2026-04-30 11:06 52.16956 20.97017 341 ft 0 kts 152°
2026-04-30 11:06 52.16956 20.97016 341 ft 0 kts 152°
2026-04-30 11:06 52.16948 20.97023 337 ft 3 kts 152°
2026-04-30 11:07 52.16904 20.97062 339 ft 11 kts 152°
2026-04-30 11:07 52.16837 20.97120 340 ft 12 kts 152°
2026-04-30 11:07 52.16768 20.97180 339 ft 12 kts 151°
2026-04-30 11:07 52.16696 20.97243 338 ft 12 kts 152°
2026-04-30 11:08 52.16626 20.97305 340 ft 12 kts 152°
2026-04-30 11:08 52.16563 20.97410 341 ft 14 kts 114°
2026-04-30 11:08 52.16518 20.97571 338 ft 17 kts 115°
2026-04-30 11:08 52.16470 20.97739 341 ft 14 kts 115°
2026-04-30 11:09 52.16399 20.97793 341 ft 11 kts 203°
2026-04-30 11:09 52.16323 20.97737 338 ft 12 kts 202°
2026-04-30 11:09 52.16266 20.97812 349 ft 13 kts 115°
2026-04-30 11:09 52.16221 20.97975 339 ft 18 kts 114°
2026-04-30 11:10 52.16184 20.98107 339 ft 20 kts 115°
2026-04-30 11:10 52.16130 20.98285 339 ft 15 kts 126°
2026-04-30 11:10 52.16098 20.98354 338 ft 4 kts 95°
2026-04-30 11:10 52.16105 20.98366 340 ft 2 kts 27°
2026-04-30 11:11 52.16119 20.98343 336 ft 5 kts 285°
2026-04-30 11:11 52.16145 20.98242 339 ft 18 kts 295°
2026-04-30 11:11 52.16315 20.97636 340 ft 98 kts 294°
2026-04-30 11:11 52.16687 20.96310 365 ft 158 kts 295°
2026-04-30 11:12 52.17176 20.94626 1176 ft 163 kts 297°
2026-04-30 11:12 52.17643 20.92928 2032 ft 173 kts 298°
2026-04-30 11:12 52.18150 20.90975 2599 ft 196 kts 292°
2026-04-30 11:12 52.18401 20.88722 3216 ft 217 kts 272°
2026-04-30 11:13 52.18100 20.86161 3850 ft 238 kts 257°
2026-04-30 11:13 52.17654 20.83496 4434 ft 255 kts 258°
2026-04-30 11:13 52.17194 20.80618 5145 ft 267 kts 258°
2026-04-30 11:13 52.16727 20.77657 5741 ft 273 kts 259°
2026-04-30 11:14 52.16254 20.74626 6752 ft 273 kts 258°
2026-04-30 11:14 52.15622 20.71683 7587 ft 281 kts 240°
2026-04-30 11:14 52.14287 20.69346 8454 ft 287 kts 219°
2026-04-30 11:14 52.12703 20.67315 9239 ft 293 kts 220°
2026-04-30 11:15 52.11098 20.65250 10077 ft 297 kts 220°
2026-04-30 11:15 52.09454 20.63151 10777 ft 305 kts 220°
2026-04-30 11:15 52.07752 20.60991 11148 ft 324 kts 219°
2026-04-30 11:15 52.05901 20.58649 11551 ft 341 kts 219°
2026-04-30 11:16 52.04028 20.56286 12156 ft 348 kts 219°
2026-04-30 11:16 52.02109 20.53866 12947 ft 351 kts 219°
2026-04-30 11:16 52.00138 20.51385 13705 ft 356 kts 219°
2026-04-30 11:16 51.98199 20.48947 14436 ft 360 kts 219°
2026-04-30 11:17 51.96202 20.46452 15104 ft 364 kts 217°
2026-04-30 11:17 51.93926 20.44633 15774 ft 369 kts 195°
2026-04-30 11:17 51.91342 20.44012 16437 ft 373 kts 185°
2026-04-30 11:17 51.88782 20.43591 17065 ft 377 kts 185°
2026-04-30 11:18 51.86125 20.43170 17719 ft 381 kts 185°
2026-04-30 11:18 51.80795 20.42348 18911 ft 388 kts 185°
2026-04-30 11:18 51.78094 20.41936 19416 ft 392 kts 185°
2026-04-30 11:19 51.75407 20.41528 19925 ft 395 kts 185°
2026-04-30 11:19 51.72659 20.41110 20421 ft 398 kts 185°
2026-04-30 11:19 51.69891 20.40689 20934 ft 401 kts 185°
2026-04-30 11:19 51.67104 20.40267 21421 ft 404 kts 185°
2026-04-30 11:20 51.64294 20.39842 21904 ft 407 kts 185°
2026-04-30 11:20 51.61459 20.39412 22394 ft 410 kts 185°
2026-04-30 11:20 51.58610 20.38981 22890 ft 413 kts 185°
2026-04-30 11:20 51.55729 20.38546 23389 ft 417 kts 185°
2026-04-30 11:21 51.52833 20.38111 23882 ft 420 kts 185°
2026-04-30 11:21 51.49917 20.37671 24300 ft 423 kts 186°
2026-04-30 11:21 51.46974 20.37228 24704 ft 426 kts 186°
2026-04-30 11:21 51.44006 20.36783 25128 ft 429 kts 186°
2026-04-30 11:22 51.41027 20.36265 25511 ft 432 kts 192°
2026-04-30 11:22 51.38194 20.34702 25924 ft 431 kts 211°
2026-04-30 11:22 51.35698 20.32061 26289 ft 432 kts 219°
2026-04-30 11:22 51.33257 20.29221 26707 ft 435 kts 219°
2026-04-30 11:23 51.30813 20.26333 27121 ft 438 kts 220°
2026-04-30 11:23 51.28361 20.23406 27505 ft 442 kts 220°
2026-04-30 11:23 51.23417 20.17471 28297 ft 448 kts 220°
2026-04-30 11:24 51.20921 20.14477 28671 ft 451 kts 220°
2026-04-30 11:24 51.18402 20.11457 29034 ft 454 kts 220°
2026-04-30 11:24 51.15869 20.08426 29413 ft 457 kts 221°
2026-04-30 11:25 51.10747 20.02311 30127 ft 463 kts 220°
2026-04-30 11:25 51.08159 19.99236 30467 ft 466 kts 220°
2026-04-30 11:25 51.02935 19.93039 31070 ft 471 kts 220°
2026-04-30 11:26 50.97654 19.86786 31631 ft 476 kts 220°
2026-04-30 11:26 50.94992 19.83641 31923 ft 478 kts 220°
2026-04-30 11:26 50.92319 19.80488 32199 ft 480 kts 220°
2026-04-30 11:27 50.89633 19.77324 32472 ft 483 kts 220°
2026-04-30 11:27 50.86931 19.74146 32727 ft 485 kts 220°
2026-04-30 11:27 50.84215 19.70956 33005 ft 487 kts 220°
2026-04-30 11:27 50.81487 19.67756 33343 ft 488 kts 220°
2026-04-30 11:28 50.76029 19.61370 34035 ft 488 kts 220°
2026-04-30 11:28 50.73297 19.58181 34371 ft 489 kts 220°
2026-04-30 11:29 50.67854 19.51840 34429 ft 488 kts 220°
2026-04-30 11:29 50.59662 19.42330 34432 ft 488 kts 220°
2026-04-30 11:30 50.51452 19.32843 34428 ft 488 kts 220°
2026-04-30 11:31 50.45972 19.26535 34418 ft 488 kts 220°
2026-04-30 11:31 50.40491 19.20242 34421 ft 489 kts 220°
2026-04-30 11:32 50.35006 19.13965 34418 ft 488 kts 220°
2026-04-30 11:32 50.29512 19.07694 34419 ft 488 kts 220°
2026-04-30 11:33 50.21241 18.98290 34432 ft 488 kts 219°
2026-04-30 11:33 50.15745 18.92063 34431 ft 487 kts 219°
2026-04-30 11:34 50.10257 18.85865 34436 ft 487 kts 219°
2026-04-30 11:34 50.04766 18.79680 34435 ft 486 kts 219°
2026-04-30 11:35 49.99285 18.73523 34434 ft 486 kts 219°
2026-04-30 11:35 49.93801 18.67379 34431 ft 486 kts 219°
2026-04-30 11:36 49.88318 18.61253 34430 ft 485 kts 219°
2026-04-30 11:36 49.83315 18.54440 34297 ft 476 kts 234°
2026-04-30 11:37 49.81234 18.50475 34470 ft 479 kts 232°
2026-04-30 11:37 49.79080 18.46458 34451 ft 486 kts 232°
2026-04-30 11:37 49.74736 18.38260 34437 ft 499 kts 232°
2026-04-30 11:38 49.70308 18.29894 34450 ft 504 kts 232°
2026-04-30 11:38 49.65859 18.21515 34452 ft 504 kts 232°
2026-04-30 11:39 49.61408 18.13156 34451 ft 504 kts 232°
2026-04-30 11:39 49.56951 18.04814 34448 ft 504 kts 232°
2026-04-30 11:40 49.52489 17.96490 34444 ft 504 kts 232°
2026-04-30 11:40 49.48025 17.88188 34438 ft 503 kts 232°
2026-04-30 11:41 49.43563 17.79914 34427 ft 503 kts 232°
2026-04-30 11:41 49.39094 17.71655 34427 ft 502 kts 232°
2026-04-30 11:42 49.34630 17.63429 34433 ft 501 kts 232°
2026-04-30 11:42 49.30161 17.55222 34423 ft 501 kts 231°
2026-04-30 11:43 49.25692 17.47039 34422 ft 501 kts 231°
2026-04-30 11:43 49.21250 17.38931 34426 ft 500 kts 231°
2026-04-30 11:44 49.16773 17.30784 34427 ft 500 kts 231°
2026-04-30 11:44 49.12290 17.22651 34422 ft 500 kts 231°
2026-04-30 11:45 49.07802 17.14535 34417 ft 501 kts 231°
2026-04-30 11:45 49.03307 17.06430 34422 ft 500 kts 231°
2026-04-30 11:46 48.98809 16.98344 34414 ft 500 kts 231°
2026-04-30 11:46 48.94298 16.90262 34421 ft 501 kts 231°
2026-04-30 11:47 48.89784 16.82196 34425 ft 501 kts 231°
2026-04-30 11:47 48.85258 16.74132 34419 ft 502 kts 231°
2026-04-30 11:48 48.80720 16.66067 34426 ft 502 kts 231°
2026-04-30 11:48 48.76591 16.57598 34432 ft 500 kts 239°
2026-04-30 11:49 48.72829 16.48728 34425 ft 500 kts 239°
2026-04-30 11:49 48.69071 16.39866 34430 ft 500 kts 239°
2026-04-30 11:50 48.65304 16.31012 34432 ft 500 kts 239°
2026-04-30 11:50 48.61533 16.22176 34433 ft 500 kts 239°
2026-04-30 11:51 48.57751 16.13345 34433 ft 500 kts 239°
2026-04-30 11:51 48.53965 16.04532 34431 ft 500 kts 239°
2026-04-30 11:52 48.50169 15.95725 34430 ft 500 kts 239°
2026-04-30 11:52 48.47010 15.88420 34433 ft 500 kts 239°
2026-04-30 11:53 48.43208 15.79651 34438 ft 500 kts 239°
2026-04-30 11:53 48.39399 15.70894 34437 ft 500 kts 239°
2026-04-30 11:54 48.35586 15.62159 34436 ft 499 kts 238°
2026-04-30 11:54 48.31769 15.53440 34436 ft 499 kts 238°
2026-04-30 11:55 48.27952 15.44750 34441 ft 498 kts 238°
2026-04-30 11:55 48.24126 15.36069 34442 ft 498 kts 238°
2026-04-30 11:56 48.20304 15.27422 34445 ft 497 kts 238°
2026-04-30 11:56 48.16480 15.18801 34429 ft 496 kts 238°
2026-04-30 11:57 48.12658 15.10210 34435 ft 495 kts 238°
2026-04-30 11:57 48.08834 15.01641 34426 ft 495 kts 238°
2026-04-30 11:58 48.05033 14.93151 34423 ft 494 kts 238°
2026-04-30 11:58 48.01182 14.84575 34415 ft 494 kts 238°
2026-04-30 11:59 47.97373 14.76120 34411 ft 494 kts 238°
2026-04-30 11:59 47.93533 14.67625 34410 ft 494 kts 238°
2026-04-30 12:00 47.89691 14.59149 34407 ft 493 kts 237°
2026-04-30 12:00 47.85843 14.50687 34399 ft 493 kts 237°
2026-04-30 12:01 47.81991 14.42243 34403 ft 493 kts 237°
2026-04-30 12:01 47.78133 14.33810 34390 ft 493 kts 237°
2026-04-30 12:02 47.74279 14.25414 34386 ft 492 kts 237°
2026-04-30 12:02 47.70408 14.17005 34370 ft 492 kts 237°
2026-04-30 12:03 47.64600 14.04438 34360 ft 492 kts 237°
2026-04-30 12:04 47.60724 13.96085 34349 ft 492 kts 237°
2026-04-30 12:04 47.56840 13.87738 34342 ft 492 kts 237°
2026-04-30 12:05 47.52949 13.79400 34339 ft 492 kts 237°
2026-04-30 12:05 47.49060 13.71094 34318 ft 491 kts 237°
2026-04-30 12:06 47.45168 13.62805 34301 ft 490 kts 237°
2026-04-30 12:06 47.41279 13.54548 34323 ft 490 kts 237°
2026-04-30 12:07 47.37383 13.46302 34310 ft 489 kts 237°
2026-04-30 12:07 47.33483 13.38071 34288 ft 490 kts 237°
2026-04-30 12:08 47.29580 13.29859 34276 ft 488 kts 237°
2026-04-30 12:08 47.25678 13.21673 34281 ft 488 kts 237°
2026-04-30 12:09 47.21775 13.13511 34267 ft 488 kts 237°
2026-04-30 12:09 47.17870 13.05364 34267 ft 487 kts 237°
2026-04-30 12:10 47.13964 12.97241 34257 ft 487 kts 237°
2026-04-30 12:10 47.10046 12.89119 34248 ft 487 kts 237°
2026-04-30 12:11 47.06132 12.81028 34245 ft 486 kts 237°
2026-04-30 12:11 47.02242 12.73008 34242 ft 486 kts 237°
2026-04-30 12:12 46.98327 12.64959 34244 ft 485 kts 237°
2026-04-30 12:12 46.94412 12.56930 34235 ft 485 kts 237°
2026-04-30 12:13 46.90494 12.48916 34269 ft 483 kts 237°
2026-04-30 12:13 46.86578 12.40930 34237 ft 483 kts 237°
2026-04-30 12:13 46.84620 12.36945 34045 ft 483 kts 237°
2026-04-30 12:14 46.82662 12.32965 33734 ft 482 kts 237°
2026-04-30 12:14 46.80649 12.29042 33442 ft 484 kts 230°
2026-04-30 12:14 46.78127 12.25777 33269 ft 487 kts 217°
2026-04-30 12:15 46.72734 12.19771 33260 ft 487 kts 219°
2026-04-30 12:15 46.67364 12.13809 33256 ft 484 kts 218°
2026-04-30 12:16 46.61998 12.07880 33257 ft 483 kts 218°
2026-04-30 12:16 46.56644 12.01978 33245 ft 483 kts 218°
2026-04-30 12:17 46.48627 11.93170 33219 ft 481 kts 218°
2026-04-30 12:17 46.43292 11.87325 33230 ft 481 kts 218°
2026-04-30 12:18 46.37958 11.81499 33236 ft 479 kts 219°
2026-04-30 12:18 46.32627 11.75689 33224 ft 479 kts 218°
2026-04-30 12:19 46.27313 11.69912 33229 ft 472 kts 219°
2026-04-30 12:19 46.24724 11.67104 33001 ft 460 kts 219°
2026-04-30 12:19 46.22174 11.64340 32493 ft 457 kts 218°
2026-04-30 12:20 46.19634 11.61591 31900 ft 456 kts 218°
2026-04-30 12:20 46.17094 11.58844 31361 ft 455 kts 218°
2026-04-30 12:20 46.14572 11.56121 30860 ft 452 kts 218°
2026-04-30 12:20 46.12092 11.53446 30361 ft 449 kts 218°
2026-04-30 12:21 46.09596 11.50756 29767 ft 447 kts 218°
2026-04-30 12:21 46.07119 11.48090 29246 ft 442 kts 218°
2026-04-30 12:21 46.04665 11.45452 28765 ft 438 kts 218°
2026-04-30 12:21 46.02236 11.42844 28281 ft 434 kts 218°
2026-04-30 12:22 45.99823 11.40255 27792 ft 430 kts 218°
2026-04-30 12:22 45.97433 11.37695 27333 ft 427 kts 218°
2026-04-30 12:22 45.95058 11.35154 26858 ft 424 kts 218°
2026-04-30 12:22 45.92696 11.32629 26406 ft 422 kts 218°
2026-04-30 12:23 45.90352 11.30126 25950 ft 419 kts 219°
2026-04-30 12:23 45.88019 11.27637 25514 ft 417 kts 219°
2026-04-30 12:23 45.85699 11.25166 25062 ft 415 kts 219°
2026-04-30 12:23 45.83387 11.22704 24640 ft 413 kts 218°
2026-04-30 12:24 45.81085 11.20257 24196 ft 411 kts 219°
2026-04-30 12:24 45.78789 11.17817 23756 ft 410 kts 219°
2026-04-30 12:24 45.76504 11.15393 23270 ft 408 kts 219°
2026-04-30 12:24 45.74236 11.12988 22856 ft 404 kts 218°
2026-04-30 12:25 45.71981 11.10599 22437 ft 401 kts 218°
2026-04-30 12:25 45.69751 11.08239 22060 ft 397 kts 218°
2026-04-30 12:25 45.67535 11.05898 21654 ft 394 kts 218°
2026-04-30 12:25 45.65126 11.04049 21173 ft 396 kts 198°
2026-04-30 12:26 45.62430 11.03440 20813 ft 392 kts 179°
2026-04-30 12:26 45.59743 11.03885 20487 ft 387 kts 170°
2026-04-30 12:26 45.57092 11.04477 20108 ft 384 kts 170°
2026-04-30 12:26 45.54457 11.05087 19723 ft 382 kts 170°
2026-04-30 12:27 45.51844 11.05707 19345 ft 379 kts 170°
2026-04-30 12:27 45.49252 11.06331 18979 ft 377 kts 170°
2026-04-30 12:27 45.46672 11.06954 18605 ft 375 kts 170°
2026-04-30 12:27 45.44105 11.07574 18191 ft 373 kts 170°
2026-04-30 12:28 45.41560 11.08189 17800 ft 369 kts 170°
2026-04-30 12:28 45.39036 11.08798 17434 ft 366 kts 170°
2026-04-30 12:28 45.36534 11.09402 17079 ft 363 kts 169°
2026-04-30 12:28 45.34056 11.09999 16722 ft 360 kts 169°
2026-04-30 12:29 45.31593 11.10593 16363 ft 357 kts 169°
2026-04-30 12:29 45.29149 11.11180 16005 ft 355 kts 169°
2026-04-30 12:29 45.26717 11.11765 15621 ft 353 kts 169°
2026-04-30 12:29 45.24298 11.12345 15284 ft 351 kts 169°
2026-04-30 12:30 45.21901 11.12921 14916 ft 349 kts 169°
2026-04-30 12:30 45.19513 11.13493 14597 ft 346 kts 169°
2026-04-30 12:30 45.17145 11.14060 14290 ft 344 kts 169°
2026-04-30 12:30 45.14799 11.14620 13949 ft 341 kts 169°
2026-04-30 12:31 45.12468 11.15179 13592 ft 338 kts 169°
2026-04-30 12:31 45.10136 11.15736 12934 ft 345 kts 169°
2026-04-30 12:31 45.07729 11.16311 12112 ft 356 kts 169°
2026-04-30 12:31 45.05261 11.16899 11444 ft 362 kts 168°
2026-04-30 12:32 45.02795 11.17486 11130 ft 356 kts 168°
2026-04-30 12:32 45.00381 11.18061 10937 ft 347 kts 168°
2026-04-30 12:32 44.98034 11.18617 10775 ft 337 kts 168°
2026-04-30 12:32 44.95753 11.19160 10620 ft 328 kts 168°
2026-04-30 12:33 44.93537 11.19684 10485 ft 318 kts 168°
2026-04-30 12:33 44.91387 11.20196 10360 ft 309 kts 168°
2026-04-30 12:33 44.89301 11.20690 10248 ft 299 kts 168°
2026-04-30 12:33 44.87256 11.21176 9930 ft 298 kts 168°
2026-04-30 12:34 44.85217 11.21659 9641 ft 295 kts 168°
2026-04-30 12:34 44.83192 11.22140 9319 ft 295 kts 168°
2026-04-30 12:34 44.81177 11.22617 8998 ft 293 kts 168°
2026-04-30 12:34 44.79172 11.23092 8694 ft 292 kts 168°
2026-04-30 12:35 44.77154 11.23281 8402 ft 293 kts 187°
2026-04-30 12:35 44.75190 11.22546 8067 ft 294 kts 195°
2026-04-30 12:35 44.73232 11.21737 7789 ft 292 kts 195°
2026-04-30 12:35 44.71426 11.20547 7662 ft 284 kts 220°
2026-04-30 12:36 44.70279 11.18405 7632 ft 270 kts 250°
2026-04-30 12:36 44.69962 11.15864 7354 ft 264 kts 277°
2026-04-30 12:36 44.70431 11.13421 7088 ft 258 kts 297°
2026-04-30 12:36 44.71184 11.11125 6818 ft 258 kts 299°
2026-04-30 12:37 44.71973 11.08870 6533 ft 258 kts 300°
2026-04-30 12:37 44.72786 11.06579 5976 ft 268 kts 296°
2026-04-30 12:37 44.73153 11.03963 5402 ft 281 kts 263°
2026-04-30 12:37 44.72494 11.01495 5426 ft 265 kts 233°
2026-04-30 12:38 44.71188 10.99808 5394 ft 248 kts 208°
2026-04-30 12:38 44.69712 10.98680 5356 ft 236 kts 205°
2026-04-30 12:38 44.68759 10.97975 5256 ft 233 kts 204°
2026-04-30 12:38 44.66725 10.97207 4832 ft 229 kts 171°
2026-04-30 12:39 44.65696 10.97556 4631 ft 224 kts 152°
2026-04-30 12:39 44.64222 10.99446 4344 ft 216 kts 121°
2026-04-30 12:39 44.63475 11.01260 4122 ft 214 kts 116°
2026-04-30 12:39 44.62792 11.03107 3930 ft 211 kts 115°
2026-04-30 12:40 44.62134 11.04940 3680 ft 208 kts 115°
2026-04-30 12:40 44.61694 11.06155 3522 ft 204 kts 115°
2026-04-30 12:40 44.61067 11.07876 3279 ft 199 kts 115°
2026-04-30 12:40 44.60455 11.09589 2984 ft 193 kts 114°
2026-04-30 12:41 44.59866 11.11249 2733 ft 189 kts 115°
2026-04-30 12:41 44.59292 11.12851 2467 ft 179 kts 115°
2026-04-30 12:41 44.58768 11.14312 2223 ft 156 kts 116°
2026-04-30 12:41 44.58280 11.15631 2041 ft 149 kts 112°
2026-04-30 12:42 44.57891 11.16974 1838 ft 149 kts 113°
2026-04-30 12:42 44.57398 11.18224 1730 ft 144 kts 117°
2026-04-30 12:42 44.56932 11.19444 1460 ft 139 kts 114°
2026-04-30 12:42 44.56498 11.20644 1267 ft 140 kts 114°
2026-04-30 12:43 44.56070 11.21857 1069 ft 138 kts 114°
2026-04-30 12:43 44.55629 11.23062 898 ft 140 kts 113°
2026-04-30 12:43 44.55189 11.24288 674 ft 140 kts 112°
2026-04-30 12:43 44.54750 11.25524 483 ft 144 kts 113°
2026-04-30 12:44 44.54305 11.26741 310 ft 135 kts 113°
2026-04-30 12:44 44.53883 11.27921 146 ft 133 kts 113°
2026-04-30 12:44 44.53511 11.28959 130 ft 100 kts 116°
2026-04-30 12:44 44.53258 11.29578 133 ft 56 kts 136°
2026-04-30 12:45 44.53062 11.29771 133 ft 12 kts 159°
2026-04-30 12:45 44.53043 11.29740 133 ft 5 kts 264°
2026-04-30 12:45 44.53054 11.29681 133 ft 8 kts 297°
2026-04-30 12:45 44.53083 11.29601 133 ft 11 kts 297°
2026-04-30 12:46 44.53121 11.29494 133 ft 14 kts 296°
2026-04-30 12:46 44.53168 11.29363 133 ft 16 kts 297°
2026-04-30 12:46 44.53224 11.29209 133 ft 19 kts 297°
2026-04-30 12:46 44.53287 11.29032 133 ft 22 kts 296°
2026-04-30 12:47 44.53345 11.28872 133 ft 11 kts 297°
2026-04-30 12:47 44.53332 11.28802 133 ft 9 kts 215°
2026-04-30 12:47 44.53290 11.28768 133 ft 4 kts 207°
2026-04-30 12:47 44.53274 11.28757 133 ft 1 kts 207°
2026-04-30 12:48 44.53271 11.28755 133 ft 0 kts 207°
2026-04-30 13:04 44.53271 11.28756 133 ft 0 kts 207°
2026-04-30 13:07 44.53272 11.28756 133 ft 0 kts 207°